Regional Weather Roundup
Issued by NWS

Home | Current Version | Previous Version | Graphics & Text | Print | Product List | Glossary On
Versions: 1 2 3 4 5 6 7 8 9 10 11 12 13 14 15 16 17 18 19 20 21 22 23 24 25 26 27 28 29 30 31 32 33 34 35 36 37 38 39 40 41 42 43 44 45 46 47 48 49 50
000
ASUS43 KLOT 190804
RWRIL

ILLINOIS REGIONAL WEATHER ROUNDUP
NATIONAL WEATHER SERVICE CHICAGO/ROMEOVILLE IL
300 AM CDT SAT AUG 19 2017

NOTE: "FAIR" INDICATES FEW OR NO CLOUDS BELOW 12,000 FEET WITH NO
SIGNIFICANT WEATHER AND/OR OBSTRUCTIONS TO VISIBILITY.

* THESE STATIONS ARE NOT UNDER NWS QUALITY CONTROL. THEY ALSO MAY NOT
  REPORT WEATHER SUCH AS PRECIPITATION OR FOG.

ILZ001-002-007-009-015-016-024-190900-
NORTHWEST ILLINOIS

CITY           SKY/WX    TMP DP  RH WIND       PRES   REMARKS
MOLINE         LGT RAIN  67  61  81 E3        29.91S
STERLING*      CLEAR     62  59  90 N3        29.92F
SAVANNA*       CLEAR     60  59  97 CALM      29.92S
$$

ILZ003-004-008-010-011-017-018-190900-
NORTH CENTRAL ILLINOIS

CITY           SKY/WX    TMP DP  RH WIND       PRES   REMARKS
ROCKFORD       PTCLDY    62  59  90 N3        29.93F
FREEPORT*      CLEAR     56  55  97 CALM      29.94F
ROCHELLE*      CLEAR     59  58  96 N3        29.92F
$$

ILZ005-006-012>014-019>023-190900-
NORTHEAST ILLINOIS

CITY           SKY/WX    TMP DP  RH WIND       PRES   REMARKS
CHICAGO-OHARE  PTCLDY    67  59  75 NW8       29.90R
CHICAGO-MIDWAY PTCLDY    70  60  70 N8        29.90R
AURORA         CLEAR     60  59  96 NW5       29.92S
LANSING*       CLOUDY    71  57  62 N3        29.90S
JOLIET*        MOCLDY    69  62  77 N3        29.91R
WAUKEGAN       CLEAR     63  61  93 NW6       29.90S
DUPAGE AIRPORT CLEAR     62  60  93 N3        29.91R
WHEELING       CLEAR     65  62  90 NW7       29.91S
MORRIS*        PTCLDY    64  62  91 CALM      29.91R
NORTHERLY ISL    N/A     70  59  68 NW8         N/A
$$

LMZ740>746-190900-
SOUTHERN LAKE MICHIGAN

STATION/POSITION SKY/WX   TEMP    WIND        PRES    VSBY  WAVE
                          AIR SEA DIR/SP/G                  HT/PER
                          (F)     (DEG/KT/KT) (MB)    (MI)  (FT/S)
SOUTHERN BUOY              70 71  360/ 14/ 16 1011.4          1/ 3
WILMETTE HARBOR            69 73  320/ 14/ 17   N/A           2/ 3
HARRISON CRIB              70     320/ 13/ 13   N/A
CALUMET HARBOR             70     310/  3/  6 1011.8R
BURNS HARBOR               72     340/ 10/ 12 1013.2R
MICHIGAN CITY              71     330/ 12/ 13   N/A
MICHIGAN CITY 6N           72 74  340/ 12/ 16   N/A           3/ 4
ST. JOSEPH                 72 74  350/ 12/ 16 1011.7R         2/ 4
$$

ILZ025>027-034>036-040-047-049-050-058-095>099-190900-
WEST-CENTRAL ILLINOIS

CITY           SKY/WX    TMP DP  RH WIND       PRES   REMARKS
QUINCY         PTCLDY    69  65  86 W5        29.90R
GALESBURG*     MOCLDY    64  62  90 NE7       29.92F
MACOMB*        CLOUDY    63  63  99 N3        29.92S
$$

ILZ028>032-037-038-041>044-048-051>054-059>061-190900-
CENTRAL ILLINOIS

CITY           SKY/WX    TMP DP  RH WIND       PRES   REMARKS
BLOOMINGTON    CLEAR     66  63  90 CALM      29.92R
DECATUR        CLEAR     70  64  81 SW8       29.90R
PEORIA         PTCLDY    67  66  97 NE5       29.90S
LACON*         PTCLDY    66  62  87 CALM      29.90S
LINCOLN*       CLEAR     65  65 100 CALM      29.91R FOG
SPRINGFIELD    CLEAR     69  66  90 S5        29.90R
TAYLORVILLE    NOT AVBL
$$

ILZ033-039-045-046-055>057-062-063-190900-
EAST-CENTRAL ILLINOIS

CITY           SKY/WX    TMP DP  RH WIND       PRES   REMARKS
CHAMPAIGN      CLOUDY    65  62  90 S3        29.90R
RANTOUL*       CLOUDY    68  66  94 W5        29.90S
MATTOON        PTCLDY    71  67  87 SW6       29.89S
PARIS*         CLOUDY    67  65  94 CALM      29.91S
$$

ILZ079-100>102-190900-
SOUTHWEST ILLINOIS

CITY           SKY/WX    TMP DP  RH WIND       PRES   REMARKS
ALTON          CLEAR     68  67  97 S3        29.92S
BELLEVILLE     CLEAR     71  67  89 CALM      29.93R
CAHOKIA*       CLEAR     72  67  84 CALM      29.91S
SPARTA*        PTCLDY    72  67  86 CALM      29.94R
$$

ILZ064>066-069>071-074>076-080>082-084>086-088>090-092>094-190900-
SOUTH-CENTRAL ILLINOIS

CITY           SKY/WX    TMP DP  RH WIND       PRES   REMARKS
CARBONDALE     CLOUDY    71  68  90 SW5       29.93R
CAIRO*         CLEAR     67  66  95 CALM      29.93R
EFFINGHAM*     PTCLDY    68  68 100 CALM      29.93S
MARION         PTCLDY    73  70  88 S5        29.93S
MT. VERNON       N/A     73  67  81 CALM      29.93R
CENTRALIA*     MOCLDY    69  68  96 SW3       29.92S
SALEM*         CLOUDY    70  67  91 CALM      29.93S
METROPOLIS*    CLEAR     72  68  87 CALM      29.94R
$$

ILZ067-068-072-073-078-083-087-091-190900-
SOUTHEAST ILLINOIS

CITY           SKY/WX    TMP DP  RH WIND       PRES   REMARKS
LAWRENCEVILLE  MOCLDY    70  67  90 SW3       29.92S
FLORA*         CLOUDY    70  67  90 SW5       29.92S
FAIRFIELD*     CLOUDY    69  67  93 CALM      29.92R
HARRISBURG*    PTCLDY    70  67  92 CALM      29.93S
ROBINSON*      PTCLDY    67  65  96 CALM      29.92S
CARMI*         MOCLDY    67  67  99 CALM      29.92R
$$

ABBREVIATIONS USED IN REMARKS
   TC - TEMPERATURE IN CELSIUS
  WCI - WIND CHILL INDEX
   HX - HEAT INDEX
  VSB - VISIBILITY
$$




USA.gov is the U.S. government's official web portal to all federal, state and local government web resources and services.